Погода в Плахине

Россия / Рязанская область     54°27′40″N   39°20′20″E
темп.,
°C
ветер,
м/с
пор.,
м/с
влажн.,
%
обл.,
%
осадки,
мм/ч
давл.,
гПа
погр.,
м
12 мая, ср
ср1200:00+9ююв119398 0.0 102611
03:00+8юв229026 0.0 102719
06:00+10вюв2382100 0.0 1027102
09:00+10зсз1283100 0.2 102597
12:00+15св51176100 0.1 1021825
15:00+13в71592100 1.1 1020837
18:00+13юв71397100 4.5 1019729
21:00+9ю389778 4.9 1021280
13 мая, чт
чт1300:00+9ююв359163 0.0 1021340
03:00+7в3595100 0.0 102183
06:00+8вюв379276 0.0 1021187
09:00+13вюв457595 0.0 1020335
12:00+17всв5666100 0.0 1017919
15:00+17вюв677984 0.5 1015907
18:00+16ю6883100 1.1 1015913
21:00+10ююз1289100 4.8 101759
14 мая, пт
пт1400:00+9ююз3495100 0.0 101773
03:00+9ю22941 0.0 101817
06:00+10юв2394100 0.0 101999
09:00+15вюв3580100 0.0 1018400
12:00+20юв476926 0.0 1017808
15:00+22юв586376 0.1 10151568
18:00+21юв5107492 1.9 1014397
21:00+17юв4128895 3.8 1012211
15 мая, сб
сб1500:00+15ю3494100 2.0 101353
03:00+16юв469489 2.3 101290
06:00+14зюз3890100 0.7 1014269
09:00+18вюв6981100 1.8 1011380
12:00+21ююв6980100 0.9 1011757
15:00+22ю8117199 2.1 10101360
18:00+21ю69789 0.8 1010785
21:00+16ююз49910 1.4 1011176
16 мая, вс
вс1600:00+14ююз389239 0.0 1012146
03:00+12ююз35940 0.0 101393
06:00+13юз37930 0.0 1014208
09:00+17зюз45720 0.0 1015594
12:00+20зюз35619 0.0 10151242
15:00+21зюз3460100 0.0 10161511
18:00+20з236697 0.0 1016838
21:00+16св2275100 0.0 101612